星链-36957(STARLINK-36957)

导读

STARLINK-36957(NORAD编号67989)是美国SpaceX公司星链(Starlink)星座的一颗低轨通信卫星,属于星链卫星网络的组成部分。 星链星座是全球规模最大的低轨卫星互联网星座,截至2025年底部署总量已突破万颗,该卫星采用星链标准设计,配备相控阵天线,依托星间激光链路技术实现低延迟、高带宽数据传输,为全球地面用户提供卫星互联网接入服务,运行在近地轨道,设计工作寿命约4-5年,后续将由新型号卫星迭代替代。

基本信息
目录编号:
67989
目录名称:
STARLINK-36957
国际标识:
2026-039D
轨道中心:
EARTH
卫星名称:
星链-36957
卫星全名:
星链-36957(STARLINK-36957)
卫星状态:
在轨 (已飞行189 天)
发射日期:
2026-02-27 UTC
国别 :
美国 (US)
星等 :
--
轨道信息
数据来源 国际轨道数据
星历时间: 2026-09-04T00:34:25+0800
11小时前
查看轨道信息
半长轴: 6861.168km
偏心率: 0.0001089
轨道倾角: 42.999°
近地点辐角 269.132°
升交点赤经 123.913°
平近点角 90.940°
近地点: 482.283km
远地点: 483.779km
周期: 94.266分钟
每日圈数: 15.275863
详细信息
固有亮度:
5
最大亮度:
2.5
卫星平台:
Starlink V1.0
覆盖范围:
全球
运营商:
太空探索技术公司
运营商所在国:
美国
制造商(研发单位):
太空探索技术公司
制造商所在国:
美国
使用方式:
暂无
卫星简介
Starlink 计划是 SpaceX 推出的全球卫星互联网项目,通过发射低轨道卫星,为全球尤其是偏远地区提供高速、低延迟的互联网服务。自 2019 年起,Starlink 已部署数千颗卫星,旨在缩小全球数字鸿沟,推动互联网普及。该项目还为军事、航空等行业提供通信支持,带来广泛经济效益。
2D轨道图
3D轨道图
轨道高度分析图
轨道倾角分析图
轨道综合分析图
查看轨道综合分析图
交会数据列表
事件ID 空间交会对象 最接近时刻(TCA) 交会距离 交会风险概率(CRP) 交会风险指数(CRI) 操作
CDM_260904-164605-639906-798921
2026-09-04T
16:46:20+0000
0.260 km
中距离
5.17635E-4 高风险 0.89
CDM_260905-072005-957506-798921
2026-09-05T
07:20:16+0000
0.399 km
远距离
1.59698E-4 高风险 0.79
CDM_260904-220705-487306-798921
2026-09-04T
22:07:02+0000
0.455 km
远距离
1.529324E-4 高风险 0.79
CDM_260904-230405-638206-798921
2026-09-04T
23:04:48+0000
0.590 km
远距离
1.070925E-4 高风险 0.76
CDM_260904-105405-797906-798922
2026-09-04T
10:54:46+0000
0.775 km
远距离
3.019864E-5 中风险 0.65
CDM_260904-215605-725306-798921
2026-09-04T
21:56:48+0000
0.725 km
远距离
2.454022E-5 中风险 0.63
CDM_260829-120105-908806-798922
2026-08-29T
12:01:49+0000
0.923 km
远距离
2.290319E-5 中风险 0.62
CDM_260905-091405-639906-798921
2026-09-05T
09:14:56+0000
0.969 km
远距离
2.241819E-5 中风险 0.62
CDM_260904-210605-797906-798922
2026-09-04T
21:06:45+0000
0.865 km
远距离
2.098996E-5 中风险 0.61
CDM_260830-234005-818906-798921
2026-08-30T
23:40:51+0000
1.239 km
极远距离
8.084865E-6 低风险 0.53